Total_Precipitation_Accumulation
1.31 1.21 1.18 1.19 1.18 1.13 1.03 0.91 0.85 0.85 0.81 0.79 0.69 0.58 0.55 0.55 0.48 0.42 0.41 0.44 0.52 0.77 1.03 1.23 1.34 1.40 1.44 1.46 1.33 1.26 1.16 1.08 1.03 1.05 1.03 1.01 0.95 0.93 0.99 1.08 1.06 0.97 0.91
1.73 1.63 1.55 1.47 1.41 1.34 1.27 1.15 1.06 1.06 1.03 0.95 0.86 0.71 0.63 0.63 0.63 0.59 0.54 0.50 0.49 0.59 0.88 1.16 1.39 1.55 1.65 1.72 1.66 1.43 1.27 1.13 1.07 1.08 1.06 1.05 1.01 0.98 0.99 0.98 1.03 1.03 1.01
1.84 1.84 1.83 1.82 1.74 1.67 1.56 1.46 1.37 1.31 1.25 1.16 1.03 0.92 0.81 0.74 0.72 0.75 0.73 0.64 0.59 0.58 0.76 1.08 1.32 1.53 1.68 1.85 1.94 1.82 1.56 1.32 1.20 1.14 1.11 1.05 1.00 1.01 1.05 1.02 0.99 0.99 1.02
1.89 1.86 1.81 1.73 1.76 1.89 1.90 1.76 1.61 1.50 1.36 1.29 1.20 1.06 0.90 0.84 0.78 0.79 0.83 0.84 0.78 0.68 0.69 0.91 1.15 1.36 1.52 1.76 1.93 2.07 2.04 1.70 1.44 1.30 1.21 1.10 1.04 1.00 1.00 1.01 0.99 0.94 0.94
2.08 2.00 1.90 1.85 1.87 1.78 1.82 1.87 1.76 1.58 1.47 1.41 1.35 1.25 1.07 0.93 0.86 0.83 0.81 0.83 0.86 0.80 0.73 0.80 0.92 1.07 1.24 1.50 1.76 2.06 2.25 2.08 1.75 1.51 1.35 1.24 1.16 1.10 1.05 1.04 1.04 0.99 0.98
2.29 2.18 1.99 1.98 2.08 1.97 1.82 1.75 1.80 1.72 1.55 1.51 1.51 1.43 1.29 1.15 1.07 0.97 0.91 0.89 0.89 0.87 0.87 0.80 0.79 0.84 0.98 1.23 1.54 1.86 2.06 2.17 2.10 1.87 1.62 1.43 1.32 1.28 1.27 1.25 1.21 1.19 1.16
2.45 2.44 2.22 2.09 2.10 2.00 1.87 1.83 1.84 1.90 1.87 1.77 1.82 1.75 1.59 1.42 1.29 1.17 1.09 1.06 1.00 0.98 0.99 0.98 0.92 0.84 0.85 1.00 1.25 1.49 1.71 1.92 2.01 1.97 1.88 1.77 1.63 1.54 1.51 1.49 1.42 1.37 1.36
2.39 2.41 2.43 2.35 2.23 2.13 2.05 2.03 2.06 2.09 2.12 2.12 2.13 2.13 2.00 1.84 1.50 1.24 1.17 1.14 1.08 1.06 1.05 1.04 0.99 0.92 0.84 0.88 1.00 1.15 1.34 1.66 1.86 1.95 1.91 1.87 1.84 1.82 1.82 1.81 1.74 1.65 1.57
2.39 2.30 2.32 2.43 2.38 2.28 2.14 2.08 2.08 2.12 2.17 2.17 2.18 2.33 2.15 1.83 1.50 1.32 1.15 1.08 1.09 1.11 1.09 1.13 1.15 1.09 1.01 0.94 0.92 0.99 1.08 1.32 1.65 1.92 2.05 2.02 1.97 2.00 2.07 2.16 2.18 2.08 1.93
2.46 2.40 2.34 2.36 2.37 2.28 2.15 2.11 2.06 2.05 2.13 2.16 2.15 2.10 2.00 1.70 1.55 1.44 1.27 1.14 1.12 1.13 1.18 1.19 1.21 1.25 1.25 1.18 1.11 1.08 1.06 1.11 1.47 1.86 2.18 2.31 2.33 2.33 2.35 2.40 2.45 2.43 2.30
2.44 2.39 2.33 2.32 2.26 2.18 2.14 2.19 2.14 2.12 2.14 2.12 2.06 2.02 2.03 1.84 1.60 1.54 1.41 1.25 1.23 1.18 1.24 1.32 1.29 1.29 1.30 1.27 1.17 1.16 1.20 1.19 1.45 1.87 2.30 2.51 2.58 2.69 2.75 2.75 2.73 2.70 2.62
2.43 2.34 2.23 2.18 2.15 2.15 2.14 2.18 2.24 2.20 2.19 2.20 2.14 2.04 2.06 2.06 1.85 1.76 1.66 1.43 1.40 1.32 1.24 1.29 1.33 1.32 1.31 1.26 1.22 1.29 1.22 1.22 1.32 1.61 2.13 2.54 2.58 2.64 2.84 3.00 2.98 2.87 2.78
2.16 2.13 2.14 2.07 2.02 1.97 2.01 2.09 2.19 2.20 2.16 2.17 2.15 2.12 2.07 2.02 1.89 1.88 1.89 1.75 1.64 1.55 1.48 1.42 1.35 1.32 1.31 1.31 1.32 1.41 1.28 1.29 1.34 1.49 1.85 2.30 2.44 2.39 2.44 2.74 3.02 3.11 3.12
2.03 2.04 2.04 2.03 2.02 1.99 1.96 2.00 2.06 2.11 2.12 2.07 1.97 1.97 1.97 1.94 1.96 1.98 1.99 2.06 2.05 1.84 1.65 1.52 1.41 1.37 1.37 1.37 1.51 1.63 1.42 1.55 1.56 1.60 1.79 2.06 2.21 2.18 2.14 2.22 2.49 2.76 2.92
1.87 1.90 1.91 1.92 1.95 1.97 1.95 1.97 2.01 1.99 2.00 1.98 1.95 1.89 1.82 1.75 1.79 1.83 1.85 1.97 2.19 2.15 1.83 1.50 1.44 1.51 1.56 1.56 1.71 1.63 1.52 1.76 1.76 1.71 1.76 1.86 1.93 1.99 2.00 2.01 2.07 2.15 2.29
1.68 1.70 1.71 1.72 1.75 1.80 1.84 1.88 1.89 1.86 1.84 1.81 1.82 1.85 1.81 1.72 1.72 1.78 1.87 1.93 2.02 2.12 1.94 1.46 1.34 1.41 1.61 1.73 1.92 1.76 1.67 1.93 1.86 1.77 1.73 1.71 1.69 1.69 1.76 1.81 1.87 1.95 1.97
1.49 1.50 1.50 1.52 1.52 1.56 1.62 1.70 1.72 1.74 1.77 1.73 1.72 1.75 1.77 1.73 1.75 1.78 1.89 1.97 2.04 2.13 2.12 1.69 1.45 1.43 1.56 1.66 1.72 1.68 1.66 1.70 1.69 1.81 1.68 1.57 1.52 1.51 1.54 1.57 1.64 1.71 1.77
1.39 1.41 1.39 1.38 1.36 1.35 1.41 1.48 1.53 1.57 1.61 1.63 1.65 1.69 1.72 1.74 1.77 1.79 1.90 1.96 1.97 1.95 1.99 1.87 1.60 1.45 1.43 1.44 1.49 1.54 1.53 1.50 1.48 1.65 1.61 1.51 1.43 1.43 1.45 1.47 1.49 1.55 1.63
1.26 1.30 1.33 1.29 1.28 1.27 1.32 1.35 1.36 1.39 1.43 1.47 1.50 1.56 1.57 1.64 1.70 1.71 1.78 1.86 1.86 1.85 1.84 1.77 1.54 1.35 1.30 1.31 1.42 1.49 1.49 1.43 1.34 1.45 1.48 1.47 1.43 1.40 1.42 1.38 1.39 1.40 1.42
1.07 1.15 1.24 1.22 1.17 1.19 1.26 1.30 1.35 1.36 1.35 1.35 1.36 1.43 1.49 1.53 1.57 1.61 1.70 1.75 1.77 1.81 1.83 1.81 1.68 1.46 1.31 1.26 1.32 1.41 1.47 1.41 1.31 1.23 1.40 1.41 1.42 1.42 1.41 1.32 1.23 1.20 1.19
0.84 0.89 1.00 1.08 1.11 1.12 1.18 1.24 1.29 1.35 1.35 1.34 1.34 1.38 1.46 1.64 1.69 1.67 1.69 1.68 1.71 1.79 1.82 1.81 1.68 1.52 1.35 1.26 1.29 1.23 1.28 1.36 1.37 1.27 1.28 1.28 1.25 1.25 1.31 1.37 1.35 1.28 1.26
0.74 0.78 0.86 0.92 1.00 1.07 1.34 1.40 1.34 1.32 1.37 1.38 1.36 1.33 1.36 1.51 1.52 1.56 1.58 1.60 1.68 1.81 1.86 1.80 1.61 1.39 1.16 1.02 1.04 1.15 1.25 1.41 1.49 1.28 1.26 1.31 1.25 1.30 1.27 1.28 1.41 1.36 1.33
0.78 0.82 0.86 0.92 0.99 1.15 1.41 1.45 1.53 1.42 1.38 1.34 1.31 1.28 1.23 1.19 1.26 1.14 1.25 1.40 1.48 1.52 1.52 1.49 1.47 1.21 1.06 0.97 1.09 1.27 1.30 1.31 1.21 1.08 1.23 1.46 1.39 1.38 1.25 1.30 1.45 1.35 1.34
0.93 1.00 1.04 1.07 1.14 1.27 1.41 1.39 1.45 1.29 1.25 1.21 1.13 1.10 1.07 1.00 1.00 1.05 1.10 1.19 1.13 1.11 1.12 1.07 1.05 0.98 0.98 1.04 1.19 1.37 1.47 1.51 1.35 1.22 1.27 1.49 1.38 1.33 1.22 1.24 1.40 1.35 1.35
1.24 1.22 1.19 1.14 1.14 1.18 1.25 1.25 1.26 1.15 1.13 1.06 0.97 0.95 0.96 0.92 1.05 1.22 1.21 1.15 1.03 1.01 1.10 1.15 1.18 1.18 1.27 1.38 1.46 1.64 1.80 1.93 1.73 1.35 1.19 1.24 1.19 1.16 1.16 1.19 1.29 1.40 1.37
1.22 1.21 1.19 1.14 1.07 1.03 1.08 1.07 1.08 1.01 0.98 0.90 0.84 0.83 0.91 0.93 1.12 1.29 1.24 1.18 1.08 0.90 0.91 1.03 1.08 1.10 1.11 1.19 1.40 1.44 1.56 1.90 1.74 1.40 1.00 1.03 1.09 1.20 1.48 1.23 1.12 1.19 1.31